DT_LEITURA;HR_LEITURA;MED-PressaoAtm[hPa];VAL-TempExt[oC];VAL-UmidExt[%UR];VAL-TempInt[oC];VAL-UmidInt[%UR];Dir-Vento[grau];Vel-Vento[m/s];Precipitação[mm/h]
17/08/2026;00:04:00;1016,7;;;20,4;86;26;7,2;0,0
17/08/2026;00:09:00;1016,7;;;20,4;86;24;7,6;0,0
17/08/2026;00:14:00;1016,6;;;20,4;86;23;8,0;0,0
17/08/2026;00:19:00;1016,6;;;20,4;86;25;7,7;0,0
17/08/2026;00:24:00;1016,6;;;20,4;86;24;7,8;0,0
17/08/2026;00:29:00;1016,6;;;20,4;86;26;7,0;0,0
17/08/2026;00:34:00;1016,6;;;20,5;86;25;7,4;0,0
17/08/2026;00:39:00;1016,5;;;20,5;86;26;7,5;0,0
17/08/2026;00:44:00;1016,5;;;20,5;86;27;8,5;0,0
17/08/2026;00:49:00;1016,6;;;20,5;86;26;8,1;0,0
17/08/2026;00:54:00;1016,5;;;20,5;86;24;7,8;0,0
17/08/2026;00:59:00;1016,6;;;20,5;86;25;7,7;0,0
17/08/2026;01:04:00;1016,5;;;20,5;86;24;7,6;0,0
17/08/2026;01:09:00;1016,5;;;20,5;86;25;7,6;0,0
17/08/2026;01:14:00;1016,5;;;20,5;86;25;7,5;0,0
17/08/2026;01:19:00;1016,5;;;20,5;86;22;7,7;0,0
17/08/2026;01:24:00;1016,5;;;20,5;86;25;8,1;0,0
17/08/2026;01:29:00;1016,5;;;20,5;86;26;7,6;0,0
17/08/2026;01:34:00;1016,4;;;20,6;86;23;7,9;0,0
17/08/2026;01:39:00;1016,4;;;20,6;86;26;7,2;0,0
17/08/2026;01:44:00;1016,4;;;20,6;86;25;7,5;0,0
17/08/2026;01:49:00;1016,4;;;20,5;86;25;8,1;0,0
17/08/2026;01:54:00;1016,4;;;20,5;86;26;8,4;0,0
17/08/2026;01:59:00;1016,3;;;20,6;86;25;8,2;0,0
17/08/2026;02:04:00;1016,3;;;20,6;86;22;7,5;0,0
17/08/2026;02:09:00;1016,2;;;20,6;86;22;7,1;0,0
17/08/2026;02:14:00;1016,2;;;20,6;86;22;7,6;0,0
17/08/2026;02:19:00;1016,2;;;20,6;86;22;7,0;0,0
17/08/2026;02:24:00;1016,2;;;20,6;86;24;7,8;0,0
17/08/2026;02:29:00;1016,2;;;20,5;86;26;7,2;0,0
17/08/2026;02:34:00;1016,2;;;20,5;86;26;7,3;0,0
17/08/2026;02:39:00;1016,2;;;20,5;86;26;7,5;0,0
17/08/2026;02:44:00;1016,2;;;20,5;86;28;7,6;0,0
17/08/2026;02:49:00;1016,1;;;20,5;86;27;7,0;0,0
17/08/2026;02:54:00;1016,1;;;20,5;86;28;7,3;0,0
17/08/2026;02:59:00;1016,1;;;20,5;86;27;7,3;0,0
17/08/2026;03:04:00;1016,0;;;20,5;86;25;7,0;0,0
17/08/2026;03:09:00;1016,0;;;20,6;86;27;7,2;0,0
17/08/2026;03:14:00;1015,9;;;20,6;86;25;7,3;0,0
17/08/2026;03:19:00;1015,9;;;20,6;86;25;7,3;0,0
17/08/2026;03:24:00;1015,9;;;20,6;86;26;7,6;0,0
17/08/2026;03:29:00;1015,9;;;20,6;86;26;7,2;0,0
17/08/2026;03:34:00;1015,8;;;20,6;86;24;7,4;0,0
17/08/2026;03:39:00;1015,7;;;20,6;86;27;7,4;0,0
17/08/2026;03:44:00;1015,7;;;20,6;86;26;7,0;0,0
17/08/2026;03:49:00;1015,7;;;20,6;86;26;6,9;0,0
17/08/2026;03:54:00;1015,6;;;20,6;86;25;6,9;0,0
17/08/2026;03:59:00;1015,5;;;20,6;86;25;7,1;0,0
17/08/2026;04:04:00;1015,5;;;20,6;86;24;7,5;0,0
17/08/2026;04:09:00;1015,4;;;20,6;86;26;7,6;0,0
17/08/2026;04:14:00;1015,3;;;20,6;86;26;7,2;0,0
17/08/2026;04:19:00;1015,3;;;20,6;86;26;7,0;0,0
17/08/2026;04:24:00;1015,3;;;20,6;86;25;7,7;0,0
17/08/2026;04:29:00;1015,3;;;20,6;86;26;7,9;0,0
17/08/2026;04:34:00;1015,2;;;20,6;86;26;8,0;0,0
17/08/2026;04:39:00;1015,2;;;20,6;86;27;8,4;0,0
17/08/2026;04:44:00;1015,3;;;20,7;86;25;7,4;0,0
17/08/2026;04:49:00;1015,3;;;20,7;86;25;7,2;0,0
17/08/2026;04:54:00;1015,3;;;20,7;86;27;6,6;0,0
17/08/2026;04:59:00;1015,3;;;20,7;86;26;7,5;0,0
17/08/2026;05:04:00;1015,3;;;20,7;86;28;7,1;0,0
17/08/2026;05:09:00;1015,3;;;20,7;86;28;7,4;0,0
17/08/2026;05:14:00;1015,3;;;20,7;86;28;7,2;0,0
17/08/2026;05:19:00;1015,2;;;20,7;86;26;7,4;0,0
17/08/2026;05:24:00;1015,2;;;20,7;86;25;7,0;0,0
17/08/2026;05:29:00;1015,2;;;20,7;86;25;6,8;0,0
17/08/2026;05:34:00;1015,1;;;20,7;86;26;7,6;0,0
17/08/2026;05:39:00;1015,1;;;20,7;86;27;7,0;0,0
17/08/2026;05:44:00;1015,1;;;20,7;86;26;7,2;0,0
17/08/2026;05:49:00;1015,1;;;20,8;86;25;7,0;0,0
17/08/2026;05:54:00;1015,1;;;20,8;86;25;7,3;0,0
17/08/2026;05:59:00;1015,1;;;20,8;86;26;7,2;0,0
17/08/2026;06:04:00;1015,1;;;20,8;86;26;7,5;0,0
17/08/2026;06:09:00;1015,0;;;20,8;86;26;7,2;0,0
17/08/2026;06:14:00;1014,9;;;20,9;86;27;7,3;0,0
17/08/2026;06:19:00;1015,0;;;20,9;86;24;7,4;0,0
17/08/2026;06:24:00;1015,0;;;20,9;86;26;6,9;0,0
17/08/2026;06:29:00;1015,0;;;20,9;86;27;7,2;0,0
17/08/2026;06:34:00;1015,0;;;20,9;86;27;7,6;0,0
17/08/2026;06:39:00;1015,0;;;20,9;86;26;6,9;0,0
17/08/2026;06:44:00;1014,9;;;20,9;86;27;7,3;0,0
17/08/2026;06:49:00;1014,9;;;20,9;86;27;7,7;0,0
17/08/2026;06:54:00;1014,8;;;20,9;86;28;7,3;0,0
17/08/2026;06:59:00;1014,8;;;20,9;86;25;7,8;0,0
17/08/2026;07:04:00;1014,8;;;20,9;86;24;7,1;0,0
17/08/2026;07:09:00;1014,7;;;20,9;86;25;6,8;0,0
17/08/2026;07:14:00;1014,6;;;20,9;85;25;6,9;0,0
17/08/2026;07:19:00;1014,6;;;20,9;86;24;7,0;0,0
17/08/2026;07:24:00;1014,5;;;20,9;86;27;7,2;0,0
17/08/2026;07:29:00;1014,5;;;20,9;86;24;7,5;0,0
17/08/2026;07:34:00;1014,5;;;20,9;86;26;7,7;0,0
17/08/2026;07:39:00;1014,4;;;20,9;86;25;7,4;0,0
17/08/2026;07:44:00;1014,5;;;21,0;86;24;7,6;0,0
17/08/2026;07:49:00;1014,5;;;21,0;86;25;7,4;0,0
17/08/2026;07:54:00;1014,5;;;21,0;86;26;7,0;0,0
17/08/2026;07:59:00;1014,5;;;21,1;86;26;7,1;0,0
17/08/2026;08:04:00;1014,5;;;21,1;86;28;6,9;0,0
17/08/2026;08:09:00;1014,4;;;21,2;87;28;7,7;0,0
17/08/2026;08:14:00;1014,4;;;21,3;87;27;7,6;0,0
17/08/2026;08:19:00;1014,5;;;21,4;87;28;7,8;0,0
17/08/2026;08:24:00;1014,5;;;21,5;87;26;8,0;0,0
17/08/2026;08:29:00;1014,5;;;21,5;87;24;7,8;0,0
17/08/2026;08:34:00;1014,5;;;21,6;87;25;8,2;0,0
17/08/2026;08:39:00;1014,5;;;21,7;87;21;8,2;0,0
17/08/2026;08:44:00;1014,5;;;21,7;87;21;8,3;0,0
17/08/2026;08:49:00;1014,5;;;21,8;87;23;8,6;0,0
17/08/2026;08:54:00;1014,6;;;21,8;86;23;8,6;0,0
17/08/2026;08:59:00;1014,6;;;21,9;86;22;8,4;0,0
17/08/2026;09:04:00;1014,6;;;21,9;86;22;8,4;0,0
17/08/2026;09:09:00;1014,6;;;22,0;86;21;8,5;0,0
17/08/2026;09:14:00;1014,5;;;22,0;86;21;8,2;0,0
17/08/2026;09:19:00;1014,5;;;22,1;86;21;8,1;0,0
17/08/2026;09:24:00;1014,6;;;22,1;86;22;8,4;0,0
17/08/2026;09:29:00;1014,7;;;22,2;86;23;8,5;0,0
17/08/2026;09:34:00;1014,7;;;22,2;86;23;8,4;0,0
17/08/2026;09:39:00;1014,7;;;22,3;86;23;8,3;0,0
17/08/2026;09:44:00;1014,8;;;22,4;86;23;7,9;0,0
17/08/2026;09:49:00;1014,8;;;22,5;86;23;8,4;0,0
17/08/2026;09:54:00;1014,7;;;22,5;86;24;8,6;0,0
17/08/2026;09:59:00;1014,7;;;22,6;86;23;8,3;0,0
17/08/2026;10:04:00;1014,7;;;22,6;86;22;7,7;0,0
17/08/2026;10:09:00;1014,8;;;22,6;86;23;8,2;0,0
17/08/2026;10:14:00;1014,8;;;22,7;86;24;8,1;0,0
17/08/2026;10:19:00;1014,8;;;22,8;86;24;7,4;0,0
17/08/2026;10:24:00;1014,9;;;22,8;86;24;7,2;0,0
17/08/2026;10:29:00;1014,8;;;22,9;86;25;7,5;0,0
17/08/2026;10:34:00;1014,9;;;22,9;86;26;7,2;0,0
17/08/2026;10:39:00;1014,9;;;23,0;86;27;7,7;0,0
17/08/2026;10:44:00;1014,8;;;23,0;86;26;7,4;0,0
17/08/2026;10:49:00;1014,9;;;23,1;86;27;7,3;0,0
17/08/2026;10:54:00;1014,9;;;23,2;86;28;7,0;0,0
17/08/2026;10:59:00;1014,9;;;23,2;85;29;6,6;0,0
17/08/2026;11:04:00;1014,9;;;23,3;86;31;5,5;0,0
17/08/2026;11:09:00;1014,9;;;23,3;85;39;4,9;0,0
17/08/2026;11:14:00;1015,0;;;23,4;85;43;5,5;0,0
17/08/2026;11:19:00;1015,0;;;23,4;85;48;6,1;0,0
17/08/2026;11:24:00;1015,1;;;23,4;85;39;5,1;0,0
17/08/2026;11:29:00;1015,1;;;23,4;85;30;6,1;0,0
17/08/2026;11:34:00;1015,1;;;23,4;86;27;6,0;0,0
17/08/2026;11:39:00;1015,2;;;23,5;85;27;6,0;0,0
17/08/2026;11:44:00;1015,2;;;23,5;85;28;6,2;0,0
17/08/2026;11:49:00;1015,1;;;23,4;85;31;6,0;0,0
17/08/2026;11:54:00;1015,2;;;23,4;84;32;5,8;0,0
17/08/2026;11:59:00;1015,2;;;23,3;84;34;5,5;0,0
17/08/2026;12:04:00;1015,2;;;23,3;85;38;5,0;0,0
17/08/2026;12:09:00;1015,2;;;23,3;85;34;5,8;0,0
17/08/2026;12:14:00;1015,1;;;23,3;86;32;5,8;0,0
17/08/2026;12:19:00;1015,1;;;23,4;85;34;5,9;0,0
17/08/2026;12:24:00;1015,0;;;23,4;85;30;6,8;0,0
17/08/2026;12:29:00;1015,1;;;23,3;84;29;6,5;0,0
17/08/2026;12:34:00;1015,0;;;23,2;84;29;7,0;0,0
17/08/2026;12:39:00;1015,0;;;23,1;85;30;6,4;0,0
17/08/2026;12:44:00;1014,9;;;23,1;85;29;6,8;0,0
17/08/2026;12:49:00;1014,8;;;23,0;85;29;7,3;0,0
17/08/2026;12:54:00;1014,7;;;23,0;85;29;7,7;0,0
17/08/2026;12:59:00;1014,6;;;23,0;85;27;7,4;0,0
17/08/2026;13:04:00;1014,5;;;22,9;85;27;8,1;0,0
17/08/2026;13:09:00;1014,5;;;22,9;85;27;7,5;0,0
17/08/2026;13:14:00;1014,4;;;22,9;85;26;7,2;0,0
17/08/2026;13:19:00;1014,2;;;22,9;86;27;7,2;0,0
17/08/2026;13:24:00;1014,1;;;23,0;86;26;7,2;0,0
17/08/2026;13:29:00;1013,9;;;23,1;86;26;7,8;0,0
17/08/2026;13:34:00;1013,9;;;23,2;86;27;7,3;0,0
17/08/2026;13:39:00;1013,8;;;23,2;85;28;7,7;0,0
17/08/2026;13:44:00;1013,7;;;23,2;85;28;7,6;0,0
17/08/2026;13:49:00;1013,7;;;23,1;84;29;7,5;0,0
17/08/2026;13:54:00;1013,6;;;23,1;84;30;7,0;0,0
17/08/2026;13:59:00;1013,5;;;23,0;84;29;7,1;0,0
17/08/2026;14:04:00;1013,4;;;22,9;84;27;7,2;0,0
17/08/2026;14:09:00;1013,4;;;22,9;84;29;7,3;0,0
17/08/2026;14:14:00;1013,4;;;22,9;84;28;7,0;0,0
17/08/2026;14:19:00;1013,3;;;22,8;84;27;7,4;0,0
17/08/2026;14:24:00;1013,2;;;22,7;84;27;7,1;0,0
17/08/2026;14:29:00;1013,2;;;22,6;84;27;6,6;0,0
17/08/2026;14:34:00;1013,1;;;22,6;84;29;6,3;0,0
17/08/2026;14:39:00;1013,1;;;22,6;84;30;6,1;0,0
17/08/2026;14:44:00;1013,2;;;22,5;85;30;6,6;0,0
17/08/2026;14:49:00;1013,1;;;22,6;85;31;6,6;0,0
17/08/2026;14:54:00;1013,0;;;22,6;85;30;7,0;0,0
17/08/2026;14:59:00;1012,9;;;22,7;85;29;7,2;0,0
17/08/2026;15:04:00;1012,9;;;22,7;85;30;6,6;0,0
17/08/2026;15:09:00;1012,8;;;22,8;86;28;6,7;0,0
17/08/2026;15:14:00;1012,7;;;23,0;86;27;6,8;0,0
17/08/2026;15:19:00;1012,6;;;23,1;86;27;7,1;0,0
17/08/2026;15:24:00;1012,6;;;23,2;85;26;7,0;0,0
17/08/2026;15:29:00;1012,6;;;23,2;85;28;6,8;0,0
17/08/2026;15:34:00;1012,6;;;23,3;85;28;7,0;0,0
17/08/2026;15:39:00;1012,6;;;23,3;84;25;7,3;0,0
17/08/2026;15:44:00;1012,5;;;23,2;84;26;7,0;0,0
17/08/2026;15:49:00;1012,5;;;23,1;84;25;7,5;0,0
17/08/2026;15:54:00;1012,5;;;23,1;84;25;7,2;0,0
17/08/2026;15:59:00;1012,5;;;23,1;84;25;6,9;0,0
17/08/2026;16:04:00;1012,4;;;23,2;84;27;7,5;0,0
17/08/2026;16:09:00;1012,4;;;23,2;84;26;7,5;0,0
17/08/2026;16:14:00;1012,4;;;23,2;84;25;7,5;0,0
17/08/2026;16:19:00;1012,4;;;23,2;84;27;7,3;0,0
17/08/2026;16:24:00;1012,5;;;23,2;84;29;7,6;0,0
17/08/2026;16:29:00;1012,4;;;23,2;83;25;7,1;0,0
17/08/2026;16:34:00;1012,4;;;23,2;83;26;8,0;0,0
17/08/2026;16:39:00;1012,4;;;23,1;83;25;7,5;0,0
17/08/2026;16:44:00;1012,4;;;23,1;83;25;7,9;0,0
17/08/2026;16:49:00;1012,4;;;23,0;82;25;7,8;0,0
17/08/2026;16:54:00;1012,5;;;22,9;82;25;7,8;0,0
17/08/2026;16:59:00;1012,5;;;22,9;82;24;7,7;0,0
17/08/2026;17:04:00;1012,5;;;22,8;83;26;8,0;0,0
17/08/2026;17:09:00;1012,5;;;22,7;82;27;7,7;0,0
17/08/2026;17:14:00;1012,5;;;22,6;82;26;8,0;0,0
17/08/2026;17:19:00;1012,5;;;22,5;83;27;7,4;0,0
17/08/2026;17:24:00;1012,5;;;22,4;83;26;7,8;0,0
17/08/2026;17:29:00;1012,6;;;22,3;83;27;7,9;0,0
17/08/2026;17:34:00;1012,6;;;22,3;83;26;7,5;0,0
17/08/2026;17:39:00;1012,6;;;22,2;83;27;7,0;0,0
17/08/2026;17:44:00;1012,6;;;22,1;83;27;7,6;0,0
17/08/2026;17:49:00;1012,6;;;22,0;83;25;7,1;0,0
17/08/2026;17:54:00;1012,6;;;21,9;83;27;7,3;0,0
17/08/2026;17:59:00;1012,6;;;21,8;83;28;7,0;0,0
17/08/2026;18:04:00;1012,6;;;21,8;83;28;7,5;0,0
17/08/2026;18:09:00;1012,6;;;21,7;83;28;7,2;0,0
17/08/2026;18:14:00;1012,7;;;21,7;83;28;7,2;0,0
17/08/2026;18:19:00;1012,7;;;21,6;84;31;7,2;0,0
17/08/2026;18:24:00;1012,8;;;21,6;84;29;6,6;0,0
17/08/2026;18:29:00;1012,8;;;21,5;84;27;6,4;0,0
17/08/2026;18:34:00;1012,8;;;21,5;84;28;6,6;0,0
17/08/2026;18:39:00;1012,9;;;21,5;84;25;6,3;0,0
17/08/2026;18:44:00;1012,9;;;21,5;84;23;6,1;0,0
17/08/2026;18:49:00;1013,0;;;21,5;84;24;5,8;0,0
17/08/2026;18:54:00;1013,1;;;21,5;84;22;5,8;0,0
17/08/2026;18:59:00;1013,2;;;21,4;84;25;6,0;0,0
17/08/2026;19:04:00;1013,2;;;21,4;84;26;5,6;0,0
17/08/2026;19:09:00;1013,3;;;21,4;84;28;6,0;0,0
17/08/2026;19:14:00;1013,4;;;21,4;84;30;5,2;0,0
17/08/2026;19:19:00;1013,4;;;21,3;83;29;4,8;0,0
17/08/2026;19:24:00;1013,3;;;21,3;84;30;5,1;0,0
17/08/2026;19:29:00;1013,3;;;21,2;84;30;5,3;0,0
17/08/2026;19:34:00;1013,4;;;21,2;84;29;5,5;0,0
17/08/2026;19:39:00;1013,5;;;21,2;84;29;5,2;0,0
17/08/2026;19:44:00;1013,6;;;21,2;84;27;5,5;0,0
17/08/2026;19:49:00;1013,6;;;21,2;84;25;5,4;0,0
17/08/2026;19:54:00;1013,7;;;21,2;84;22;5,4;0,0
17/08/2026;19:59:00;1013,7;;;21,1;84;25;5,3;0,0
17/08/2026;20:04:00;1013,8;;;21,1;84;24;5,6;0,0
17/08/2026;20:09:00;1013,8;;;21,1;84;27;5,7;0,0
17/08/2026;20:14:00;1013,9;;;21,1;84;26;5,5;0,0
17/08/2026;20:19:00;1013,9;;;21,1;84;26;5,2;0,0
17/08/2026;20:24:00;1014,0;;;21,1;84;26;5,0;0,0
17/08/2026;20:29:00;1014,0;;;21,1;84;31;4,8;0,0
17/08/2026;20:34:00;1014,1;;;21,1;84;29;4,8;0,0
17/08/2026;20:39:00;1014,1;;;21,0;84;32;4,6;0,0
17/08/2026;20:44:00;1014,0;;;21,0;84;33;4,3;0,0
17/08/2026;20:49:00;1014,1;;;21,0;84;28;5,0;0,0
17/08/2026;20:54:00;1014,1;;;21,0;84;24;5,2;0,0
17/08/2026;20:59:00;1014,1;;;21,0;84;24;5,8;0,0
17/08/2026;21:04:00;1014,1;;;21,0;84;24;5,2;0,0
17/08/2026;21:09:00;1014,1;;;21,0;84;27;5,5;0,0
17/08/2026;21:14:00;1014,0;;;21,0;84;28;5,9;0,0
17/08/2026;21:19:00;1014,0;;;21,0;84;29;5,3;0,0
17/08/2026;21:24:00;1013,9;;;21,0;84;25;5,2;0,0
17/08/2026;21:29:00;1013,9;;;21,0;84;27;6,6;0,0
17/08/2026;21:34:00;1014,0;;;21,1;84;26;5,9;0,0
17/08/2026;21:39:00;1014,0;;;21,1;84;25;5,7;0,0
17/08/2026;21:44:00;1014,1;;;21,1;84;25;5,2;0,0
17/08/2026;21:49:00;1014,2;;;21,1;84;25;4,8;0,0
17/08/2026;21:54:00;1014,2;;;21,0;84;25;5,0;0,0
17/08/2026;21:59:00;1014,3;;;21,0;84;27;4,8;0,0
17/08/2026;22:04:00;1014,3;;;21,0;84;29;4,1;0,0
17/08/2026;22:09:00;1014,3;;;21,0;84;30;4,1;0,0
17/08/2026;22:14:00;1014,3;;;21,0;84;27;5,5;0,0
17/08/2026;22:19:00;1014,4;;;21,0;84;29;5,0;0,0
17/08/2026;22:24:00;1014,5;;;21,0;84;32;4,6;0,0
17/08/2026;22:29:00;1014,5;;;21,0;84;28;4,8;0,0
17/08/2026;22:34:00;1014,5;;;21,0;84;28;4,6;0,0
17/08/2026;22:39:00;1014,5;;;21,0;84;27;4,1;0,0
17/08/2026;22:44:00;1014,5;;;21,0;84;28;4,4;0,0
17/08/2026;22:49:00;1014,5;;;21,0;84;31;4,7;0,0
17/08/2026;22:54:00;1014,5;;;21,0;84;37;3,9;0,0
17/08/2026;22:59:00;1014,5;;;20,9;84;31;3,9;0,0
17/08/2026;23:04:00;1014,5;;;20,9;84;27;4,4;0,0
17/08/2026;23:09:00;1014,5;;;20,9;84;27;4,6;0,0
17/08/2026;23:14:00;1014,5;;;20,9;84;25;4,4;0,0
17/08/2026;23:19:00;1014,4;;;20,9;84;22;4,6;0,0
17/08/2026;23:24:00;1014,4;;;20,9;84;25;4,8;0,0
17/08/2026;23:29:00;1014,3;;;20,9;84;24;5,1;0,0
17/08/2026;23:34:00;1014,3;;;20,9;84;21;4,9;0,0
17/08/2026;23:39:00;1014,2;;;20,9;84;21;4,8;0,0
17/08/2026;23:44:00;1014,2;;;20,9;84;24;5,3;0,0
17/08/2026;23:49:00;1014,2;;;20,9;84;25;4,9;0,0
17/08/2026;23:54:00;1014,2;;;20,9;84;25;4,9;0,0
17/08/2026;23:59:00;1014,2;;;20,8;84;24;4,0;0,0
